| time (UTC) | temp C | wind direction | speed KPH | gust KPH | rain 1hr cm | rain 24hr cm | rain mn cm | humidity % | barometer mb |
| 20260507124001 | 12 | 325 | 4.8 | 0.0 | 0.00 | 0.00 | 0.00 | 64 | 1013.3 |
| 20260507123501 | 13 | 301 | 6.4 | 0.0 | 0.00 | 0.00 | 0.00 | 63 | 1013.3 |
| 20260507123002 | 13 | 302 | 6.4 | 0.0 | 0.00 | 0.00 | 0.00 | 64 | 1013.1 |
| 20260507122501 | 12 | 242 | 9.7 | 0.0 | 0.00 | 0.00 | 0.00 | 66 | 1013.4 |
| 20260507122002 | 13 | 248 | 12.9 | 0.0 | 0.00 | 0.00 | 0.00 | 67 | 1013.2 |
| 20260507121501 | 12 | 219 | 3.2 | 0.0 | 0.00 | 0.00 | 0.00 | 66 | 1013.3 |
| 20260507121002 | 12 | 310 | 6.4 | 0.0 | 0.00 | 0.00 | 0.00 | 65 | 1013.2 |
| 20260507120501 | 12 | 244 | 11.3 | 0.0 | 0.00 | 0.00 | 0.00 | 66 | 1013.2 |
| 20260507120002 | 12 | 279 | 6.4 | 0.0 | 0.00 | 0.00 | 0.00 | 68 | 1013.2 |
| 20260507115501 | 12 | 247 | 1.6 | 0.0 | 0.00 | 0.00 | 0.00 | 69 | 1013.3 |
| 20260507115002 | 12 | 296 | 8.0 | 0.0 | 0.00 | 0.00 | 0.00 | 69 | 1013.4 |
| 20260507114501 | 12 | 319 | 12.9 | 0.0 | 0.00 | 0.00 | 0.00 | 67 | 1013.4 |
| 20260507114002 | 12 | 253 | 6.4 | 0.0 | 0.00 | 0.00 | 0.00 | 70 | 1013.4 |
| 20260507113502 | 11 | 265 | 12.9 | 0.0 | 0.00 | 0.00 | 0.00 | 68 | 1013.4 |
| 20260507113001 | 12 | 308 | 1.6 | 0.0 | 0.00 | 0.00 | 0.00 | 68 | 1013.5 |
| 20260507112504 | 12 | 266 | 9.7 | 0.0 | 0.00 | 0.00 | 0.00 | 70 | 1013.5 |
| 20260507112001 | 11 | 279 | 12.9 | 0.0 | 0.00 | 0.00 | 0.00 | 68 | 1013.5 |
| 20260507111503 | 12 | 247 | 9.7 | 0.0 | 0.00 | 0.00 | 0.00 | 70 | 1013.5 |
| 20260507111001 | 12 | 301 | 4.8 | 0.0 | 0.00 | 0.00 | 0.00 | 68 | 1013.5 |
| 20260507110503 | 12 | 327 | 11.3 | 0.0 | 0.00 | 0.00 | 0.00 | 70 | 1013.5 |
| 20260507110001 | 12 | 270 | 11.3 | 0.0 | 0.00 | 0.00 | 0.00 | 69 | 1013.5 |
| 20260507105501 | 12 | 268 | 1.6 | 0.0 | 0.00 | 0.00 | 0.00 | 71 | 1013.5 |
| 20260507105001 | 11 | 280 | 8.0 | 0.0 | 0.00 | 0.00 | 0.00 | 71 | 1013.6 |
| 20260507104502 | 11 | 248 | 9.7 | 0.0 | 0.00 | 0.00 | 0.00 | 70 | 1013.6 |
| 20260507104002 | 11 | 244 | 9.7 | 0.0 | 0.00 | 0.00 | 0.00 | 73 | 1013.6 |
| 20260507103501 | 11 | 240 | 9.7 | 0.0 | 0.00 | 0.00 | 0.00 | 74 | 1013.6 |
| 20260507103002 | 11 | 245 | 9.7 | 0.0 | 0.00 | 0.00 | 0.00 | 73 | 1013.7 |
| 20260507102501 | 11 | 270 | 16.1 | 0.0 | 0.00 | 0.00 | 0.00 | 71 | 1013.7 |
| 20260507102002 | 11 | 246 | 11.3 | 0.0 | 0.00 | 0.00 | 0.00 | 73 | 1013.7 |
| 20260507101501 | 11 | 249 | 3.2 | 0.0 | 0.00 | 0.00 | 0.00 | 73 | 1013.7 |
| 20260507101002 | 11 | 250 | 4.8 | 0.0 | 0.00 | 0.00 | 0.00 | 74 | 1013.7 |
| 20260507100501 | 10 | 298 | 9.7 | 0.0 | 0.00 | 0.00 | 0.00 | 73 | 1013.7 |
| 20260507100002 | 11 | 270 | 20.9 | 0.0 | 0.00 | 0.00 | 0.00 | 75 | 1013.6 |
| 20260507095502 | 10 | 252 | 8.0 | 0.0 | 0.00 | 0.00 | 0.00 | 77 | 1013.6 |
| 20260507095002 | 10 | 238 | 9.7 | 0.0 | 0.00 | 0.00 | 0.00 | 78 | 1013.7 |
| 20260507094502 | 10 | 281 | 9.7 | 0.0 | 0.00 | 0.00 | 0.00 | 77 | 1013.7 |
| 20260507094001 | 10 | 247 | 6.4 | 0.0 | 0.00 | 0.00 | 0.00 | 78 | 1013.6 |
| 20260507093502 | 10 | 265 | 3.2 | 0.0 | 0.00 | 0.00 | 0.00 | 78 | 1013.5 |
| 20260507093001 | 10 | 258 | 11.3 | 0.0 | 0.00 | 0.00 | 0.00 | 77 | 1013.5 |
| 20260507092502 | 10 | 286 | 6.4 | 0.0 | 0.00 | 0.00 | 0.00 | 78 | 1013.5 |
| 20260507092001 | 10 | 279 | 8.0 | 0.0 | 0.00 | 0.00 | 0.00 | 78 | 1013.5 |
| 20260507091502 | 10 | 294 | 4.8 | 0.0 | 0.00 | 0.00 | 0.00 | 80 | 1013.5 |
| 20260507091002 | 10 | 245 | 9.7 | 0.0 | 0.00 | 0.00 | 0.00 | 80 | 1013.4 |
| 20260507090501 | 10 | 195 | 4.8 | 0.0 | 0.00 | 0.00 | 0.00 | 81 | 1013.4 |
| 20260507090002 | 10 | 276 | 9.7 | 0.0 | 0.00 | 0.00 | 0.00 | 82 | 1013.4 |
| 20260507085501 | 10 | 227 | 14.5 | 0.0 | 0.00 | 0.00 | 0.00 | 82 | 1013.4 |
| 20260507085002 | 10 | 285 | 19.3 | 0.0 | 0.00 | 0.00 | 0.00 | 83 | 1013.4 |
| 20260507084502 | 9 | 205 | 9.7 | 0.0 | 0.00 | 0.00 | 0.00 | 83 | 1013.3 |
| 20260507084002 | 9 | 266 | 1.6 | 0.0 | 0.00 | 0.00 | 0.00 | 85 | 1013.3 |
| 20260507083501 | 9 | 261 | 6.4 | 0.0 | 0.00 | 0.00 | 0.00 | 86 | 1013.3 |
| 20260507083001 | 9 | 281 | 6.4 | 0.0 | 0.00 | 0.00 | 0.00 | 86 | 1013.2 |
| 20260507082502 | 8 | 272 | 9.7 | 0.0 | 0.00 | 0.00 | 0.00 | 87 | 1013.3 |
| 20260507082001 | 8 | 268 | 8.0 | 0.0 | 0.00 | 0.00 | 0.00 | 87 | 1013.2 |
| 20260507081502 | 9 | 245 | 4.8 | 0.0 | 0.00 | 0.00 | 0.00 | 87 | 1013.2 |
| 20260507081001 | 9 | 256 | 6.4 | 0.0 | 0.00 | 0.00 | 0.00 | 87 | 1013.2 |
| 20260507080502 | 9 | 239 | 4.8 | 0.0 | 0.00 | 0.00 | 0.00 | 88 | 1013.2 |
| 20260507080001 | 8 | 241 | 1.6 | 0.0 | 0.00 | 0.00 | 0.00 | 88 | 1013.2 |
| 20260507075501 | 8 | 256 | 9.7 | 0.0 | 0.00 | 0.00 | 0.00 | 89 | 1013.2 |
| 20260507075001 | 8 | 277 | 8.0 | 0.0 | 0.00 | 0.00 | 0.00 | 89 | 1013.2 |
| 20260507074501 | 8 | 277 | 3.2 | 0.0 | 0.00 | 0.00 | 0.00 | 90 | 1013.2 |
| 20260507074002 | 8 | 244 | 4.8 | 0.0 | 0.00 | 0.00 | 0.00 | 91 | 1013.1 |
| 20260507073501 | 8 | 251 | 11.3 | 0.0 | 0.00 | 0.00 | 0.00 | 91 | 1013.0 |
| 20260507073002 | 8 | 258 | 6.4 | 0.0 | 0.00 | 0.00 | 0.00 | 91 | 1013.0 |
| 20260507072501 | 8 | 240 | 3.2 | 0.0 | 0.00 | 0.00 | 0.00 | 91 | 1012.9 |
| 20260507072002 | 8 | 243 | 12.9 | 0.0 | 0.00 | 0.00 | 0.00 | 92 | 1012.9 |
| 20260507071501 | 8 | 257 | 11.3 | 0.0 | 0.00 | 0.00 | 0.00 | 92 | 1012.8 |
| 20260507071001 | 8 | 240 | 11.3 | 0.0 | 0.00 | 0.00 | 0.00 | 93 | 1012.8 |
| 20260507070501 | 7 | 263 | 8.0 | 0.0 | 0.00 | 0.00 | 0.00 | 94 | 1012.9 |
| 20260507070002 | 7 | 254 | 8.0 | 0.0 | 0.00 | 0.00 | 0.00 | 94 | 1012.7 |
| 20260507065502 | 7 | 238 | 9.7 | 0.0 | 0.00 | 0.00 | 0.00 | 94 | 1012.6 |
| 20260507065001 | 7 | 237 | 11.3 | 0.0 | 0.00 | 0.00 | 0.00 | 94 | 1012.7 |
| 20260507064502 | 7 | 245 | 9.7 | 0.0 | 0.00 | 0.00 | 0.00 | 94 | 1012.6 |
| 20260507064001 | 7 | 242 | 4.8 | 0.0 | 0.00 | 0.00 | 0.00 | 93 | 1012.7 |
| 20260507063502 | 7 | 241 | 3.2 | 0.0 | 0.00 | 0.00 | 0.00 | 93 | 1012.6 |
| 20260507063002 | 7 | 207 | 9.7 | 0.0 | 0.00 | 0.00 | 0.00 | 93 | 1012.5 |
| 20260507062501 | 7 | 237 | 8.0 | 0.0 | 0.00 | 0.00 | 0.00 | 93 | 1012.6 |
| 20260507062001 | 7 | 242 | 6.4 | 0.0 | 0.00 | 0.00 | 0.00 | 92 | 1012.6 |
| 20260507061502 | 7 | 250 | 9.7 | 0.0 | 0.00 | 0.00 | 0.00 | 92 | 1012.5 |
| 20260507061002 | 7 | 234 | 4.8 | 0.0 | 0.00 | 0.00 | 0.00 | 92 | 1012.4 |
| 20260507060501 | 7 | 235 | 6.4 | 0.0 | 0.00 | 0.00 | 0.00 | 92 | 1012.4 |
| 20260507060002 | 7 | 236 | 8.0 | 0.0 | 0.00 | 0.00 | 0.00 | 91 | 1012.4 |
| 20260507055501 | 7 | 244 | 4.8 | 0.0 | 0.00 | 0.00 | 0.00 | 91 | 1012.4 |
| 20260507055002 | 7 | 243 | 11.3 | 0.0 | 0.00 | 0.00 | 0.00 | 90 | 1012.2 |
| 20260507054501 | 7 | 248 | 8.0 | 0.0 | 0.00 | 0.00 | 0.00 | 89 | 1012.2 |
| 20260507054002 | 7 | 253 | 6.4 | 0.0 | 0.00 | 0.00 | 0.00 | 88 | 1012.2 |
| 20260507053502 | 7 | 244 | 6.4 | 0.0 | 0.00 | 0.00 | 0.00 | 88 | 1012.2 |
| 20260507053002 | 7 | 264 | 6.4 | 0.0 | 0.00 | 0.00 | 0.00 | 87 | 1012.1 |
| 20260507052502 | 8 | 255 | 8.0 | 0.0 | 0.00 | 0.00 | 0.00 | 86 | 1012.0 |
| 20260507052001 | 8 | 255 | 12.9 | 0.0 | 0.00 | 0.00 | 0.00 | 86 | 1011.9 |
| 20260507051502 | 8 | 249 | 11.3 | 0.0 | 0.00 | 0.00 | 0.00 | 86 | 1011.8 |
| 20260507051002 | 7 | 238 | 4.8 | 0.0 | 0.00 | 0.00 | 0.00 | 85 | 1011.9 |
| 20260507050502 | 8 | 255 | 4.8 | 0.0 | 0.00 | 0.00 | 0.00 | 85 | 1011.7 |
| 20260507050001 | 8 | 247 | 11.3 | 0.0 | 0.00 | 0.00 | 0.00 | 85 | 1011.7 |
| 20260507045502 | 8 | 246 | 9.7 | 0.0 | 0.00 | 0.00 | 0.00 | 85 | 1011.6 |
| 20260507045001 | 7 | 272 | 9.7 | 0.0 | 0.00 | 0.00 | 0.00 | 84 | 1011.6 |
| 20260507044503 | 8 | 270 | 9.7 | 0.0 | 0.00 | 0.00 | 0.00 | 84 | 1011.5 |
| 20260507044002 | 7 | 275 | 4.8 | 0.0 | 0.00 | 0.00 | 0.00 | 85 | 1011.5 |
| 20260507043501 | 7 | 247 | 3.2 | 0.0 | 0.00 | 0.00 | 0.00 | 85 | 1011.4 |
| 20260507043002 | 7 | 252 | 6.4 | 0.0 | 0.00 | 0.00 | 0.00 | 85 | 1011.4 |
| 20260507042501 | 7 | 244 | 6.4 | 0.0 | 0.00 | 0.00 | 0.00 | 86 | 1011.3 |
| 20260507042002 | 7 | 248 | 11.3 | 0.0 | 0.00 | 0.00 | 0.00 | 85 | 1011.2 |
| 20260507041501 | 7 | 245 | 9.7 | 0.0 | 0.00 | 0.00 | 0.00 | 86 | 1011.1 |
| 20260507041002 | 7 | 251 | 12.9 | 0.0 | 0.00 | 0.00 | 0.00 | 86 | 1011.2 |
| 20260507040501 | 7 | 250 | 4.8 | 0.0 | 0.00 | 0.00 | 0.00 | 85 | 1011.2 |
| 20260507040002 | 7 | 253 | 11.3 | 0.0 | 0.00 | 0.00 | 0.00 | 86 | 1011.1 |
| 20260507035503 | 7 | 245 | 9.7 | 0.0 | 0.00 | 0.00 | 0.00 | 86 | 1011.1 |
| 20260507035002 | 7 | 247 | 8.0 | 0.0 | 0.00 | 0.00 | 0.00 | 87 | 1011.1 |
| 20260507034502 | 7 | 258 | 14.5 | 0.0 | 0.00 | 0.00 | 0.00 | 87 | 1011.1 |
| 20260507034001 | 7 | 260 | 11.3 | 0.0 | 0.00 | 0.00 | 0.00 | 87 | 1010.9 |
| 20260507033502 | 7 | 279 | 16.1 | 0.0 | 0.00 | 0.00 | 0.00 | 88 | 1011.1 |
| 20260507033001 | 7 | 260 | 8.0 | 0.0 | 0.00 | 0.00 | 0.00 | 89 | 1011.0 |
| 20260507032502 | 7 | 250 | 3.2 | 0.0 | 0.00 | 0.00 | 0.00 | 89 | 1010.9 |
| 20260507032001 | 7 | 242 | 4.8 | 0.0 | 0.00 | 0.00 | 0.00 | 89 | 1011.0 |
| 20260507031501 | 7 | 243 | 4.8 | 0.0 | 0.00 | 0.00 | 0.00 | 89 | 1010.9 |
| 20260507031002 | 7 | 237 | 6.4 | 0.0 | 0.00 | 0.00 | 0.00 | 88 | 1010.9 |
| 20260507030501 | 7 | 220 | 8.0 | 0.0 | 0.00 | 0.00 | 0.00 | 88 | 1010.8 |
| 20260507030001 | 7 | 219 | 9.7 | 0.0 | 0.00 | 0.00 | 0.00 | 87 | 1010.9 |
| 20260507025502 | 7 | 227 | 8.0 | 0.0 | 0.00 | 0.00 | 0.00 | 85 | 1010.9 |
| 20260507025001 | 7 | 223 | 6.4 | 0.0 | 0.00 | 0.00 | 0.00 | 85 | 1011.0 |
| 20260507024501 | 7 | 252 | 8.0 | 0.0 | 0.00 | 0.00 | 0.00 | 84 | 1010.9 |
| 20260507023501 | 7 | 251 | 9.7 | 0.0 | 0.00 | 0.00 | 0.00 | 83 | 1010.9 |
| 20260507023001 | 7 | 256 | 4.8 | 0.0 | 0.00 | 0.00 | 0.00 | 83 | 1010.8 |
| 20260507022502 | 8 | 298 | 9.7 | 0.0 | 0.00 | 0.00 | 0.00 | 83 | 1010.9 |
| 20260507022001 | 8 | 284 | 8.0 | 0.0 | 0.00 | 0.00 | 0.00 | 83 | 1010.8 |
| 20260507021501 | 8 | 268 | 9.7 | 0.0 | 0.00 | 0.00 | 0.00 | 83 | 1010.8 |
| 20260507021002 | 8 | 257 | 6.4 | 0.0 | 0.00 | 0.00 | 0.00 | 83 | 1010.8 |
| 20260507020501 | 8 | 255 | 6.4 | 0.0 | 0.00 | 0.00 | 0.00 | 83 | 1010.7 |
| 20260507020001 | 8 | 295 | 6.4 | 0.0 | 0.00 | 0.00 | 0.00 | 84 | 1010.8 |
| 20260507015502 | 8 | 265 | 11.3 | 0.0 | 0.00 | 0.00 | 0.00 | 83 | 1010.6 |
| 20260507015001 | 8 | 290 | 11.3 | 0.0 | 0.00 | 0.00 | 0.00 | 84 | 1010.7 |
| 20260507014502 | 8 | 268 | 8.0 | 0.0 | 0.00 | 0.00 | 0.00 | 83 | 1010.7 |
| 20260507014002 | 8 | 257 | 9.7 | 0.0 | 0.00 | 0.00 | 0.00 | 83 | 1010.7 |
| 20260507013501 | 8 | 295 | 11.3 | 0.0 | 0.00 | 0.00 | 0.00 | 83 | 1010.7 |
| 20260507013002 | 8 | 266 | 12.9 | 0.0 | 0.00 | 0.00 | 0.00 | 84 | 1010.7 |
| 20260507012502 | 8 | 270 | 12.9 | 0.0 | 0.00 | 0.00 | 0.00 | 84 | 1010.7 |
| 20260507012001 | 8 | 261 | 8.0 | 0.0 | 0.00 | 0.00 | 0.00 | 85 | 1010.7 |
| 20260507011501 | 8 | 245 | 9.7 | 0.0 | 0.00 | 0.00 | 0.00 | 86 | 1010.7 |
| 20260507011002 | 8 | 280 | 14.5 | 0.0 | 0.00 | 0.00 | 0.00 | 86 | 1010.6 |
| 20260507010501 | 7 | 262 | 3.2 | 0.0 | 0.00 | 0.00 | 0.00 | 88 | 1010.6 |
| 20260507010001 | 7 | 261 | 3.2 | 0.0 | 0.00 | 0.00 | 0.00 | 88 | 1010.6 |
| 20260507005502 | 7 | 243 | 9.7 | 0.0 | 0.00 | 0.00 | 0.00 | 88 | 1010.7 |
| 20260507005001 | 7 | 240 | 6.4 | 0.0 | 0.00 | 0.00 | 0.00 | 87 | 1010.6 |
| 20260507004501 | 7 | 235 | 9.7 | 0.0 | 0.00 | 0.00 | 0.00 | 88 | 1010.4 |
| 20260507004002 | 7 | 237 | 11.3 | 0.0 | 0.00 | 0.00 | 0.00 | 89 | 1010.4 |
| 20260507003501 | 7 | 261 | 6.4 | 0.0 | 0.00 | 0.00 | 0.00 | 92 | 1010.3 |
| 20260507003001 | 7 | 252 | 8.0 | 0.0 | 0.00 | 0.00 | 0.00 | 92 | 1010.3 |
| 20260507002502 | 7 | 244 | 11.3 | 0.0 | 0.00 | 0.00 | 0.00 | 92 | 1010.3 |
| 20260507002001 | 6 | 230 | 8.0 | 0.0 | 0.00 | 0.00 | 0.00 | 92 | 1010.5 |
| 20260507001501 | 6 | 229 | 4.8 | 0.0 | 0.00 | 0.00 | 0.00 | 92 | 1010.4 |
| 20260507001002 | 6 | 238 | 6.4 | 0.0 | 0.00 | 0.00 | 0.00 | 92 | 1010.4 |
| 20260507000501 | 6 | 235 | 3.2 | 0.0 | 0.00 | 0.00 | 0.00 | 92 | 1010.3 |
| 20260507000002 | 6 | 248 | 6.4 | 0.0 | 0.00 | 0.00 | 0.00 | 92 | 1010.5 |
| 20260506235502 | 6 | 235 | 4.8 | 0.0 | 0.00 | 0.00 | 0.00 | 92 | 1010.4 |
| 20260506235001 | 7 | 242 | 4.8 | 0.0 | 0.00 | 0.00 | 0.00 | 91 | 1010.4 |
| 20260506234502 | 7 | 251 | 3.2 | 0.0 | 0.00 | 0.00 | 0.00 | 91 | 1010.4 |
| 20260506234002 | 7 | 244 | 4.8 | 0.0 | 0.00 | 0.00 | 0.00 | 92 | 1010.4 |
| 20260506233501 | 7 | 242 | 3.2 | 0.0 | 0.00 | 0.00 | 0.00 | 92 | 1010.4 |
| 20260506233001 | 7 | 221 | 3.2 | 0.0 | 0.00 | 0.00 | 0.00 | 92 | 1010.4 |
| 20260506232502 | 7 | 217 | 4.8 | 0.0 | 0.00 | 0.00 | 0.00 | 92 | 1010.4 |
| 20260506232001 | 7 | 239 | 3.2 | 0.0 | 0.00 | 0.00 | 0.00 | 92 | 1010.3 |
| 20260506231504 | 7 | 239 | 3.2 | 0.0 | 0.00 | 0.00 | 0.00 | 92 | 1010.3 |
| 20260506231002 | 7 | 240 | 3.2 | 0.0 | 0.00 | 0.00 | 0.00 | 92 | 1010.2 |
| 20260506230501 | 7 | 236 | 6.4 | 0.0 | 0.00 | 0.00 | 0.00 | 93 | 1010.2 |
| 20260506230002 | 6 | 233 | 6.4 | 0.0 | 0.00 | 0.00 | 0.00 | 93 | 1010.3 |
| 20260506225502 | 6 | 250 | 4.8 | 0.0 | 0.00 | 0.00 | 0.00 | 93 | 1010.3 |
| 20260506225001 | 7 | 242 | 8.0 | 0.0 | 0.00 | 0.00 | 0.00 | 93 | 1010.2 |
| 20260506224501 | 7 | 227 | 8.0 | 0.0 | 0.00 | 0.00 | 0.00 | 93 | 1010.2 |
| 20260506224002 | 7 | 230 | 9.7 | 0.0 | 0.00 | 0.00 | 0.00 | 93 | 1010.1 |
| 20260506223501 | 7 | 228 | 6.4 | 0.0 | 0.00 | 0.00 | 0.00 | 93 | 1010.1 |
| 20260506223002 | 7 | 236 | 6.4 | 0.0 | 0.00 | 0.00 | 0.00 | 92 | 1010.3 |
| 20260506222503 | 6 | 213 | 8.0 | 0.0 | 0.00 | 0.00 | 0.00 | 92 | 1010.1 |
| 20260506222001 | 6 | 239 | 9.7 | 0.0 | 0.00 | 0.00 | 0.00 | 92 | 1010.1 |
| 20260506221502 | 6 | 240 | 8.0 | 0.0 | 0.00 | 0.00 | 0.00 | 92 | 1010.1 |
| 20260506221002 | 6 | 243 | 6.4 | 0.0 | 0.00 | 0.00 | 0.00 | 92 | 1010.1 |
| 20260506220501 | 7 | 237 | 6.4 | 0.0 | 0.00 | 0.00 | 0.00 | 91 | 1010.1 |
| 20260506220001 | 7 | 206 | 9.7 | 0.0 | 0.00 | 0.00 | 0.00 | 91 | 1010.0 |
| 20260506215503 | 7 | 212 | 6.4 | 0.0 | 0.00 | 0.00 | 0.00 | 90 | 1010.0 |
| 20260506215001 | 7 | 217 | 6.4 | 0.0 | 0.00 | 0.00 | 0.00 | 90 | 1010.0 |
| 20260506214501 | 7 | 208 | 6.4 | 0.0 | 0.00 | 0.00 | 0.00 | 89 | 1010.0 |
| 20260506214002 | 7 | 225 | 8.0 | 0.0 | 0.00 | 0.00 | 0.00 | 88 | 1010.1 |
| 20260506213501 | 7 | 241 | 9.7 | 0.0 | 0.00 | 0.00 | 0.00 | 88 | 1010.0 |
| 20260506213002 | 7 | 252 | 9.7 | 0.0 | 0.00 | 0.00 | 0.00 | 87 | 1010.0 |
| 20260506212502 | 7 | 247 | 8.0 | 0.0 | 0.00 | 0.00 | 0.00 | 87 | 1010.0 |
| 20260506212001 | 7 | 246 | 9.7 | 0.0 | 0.00 | 0.00 | 0.00 | 87 | 1010.0 |
| 20260506211501 | 7 | 248 | 9.7 | 0.0 | 0.00 | 0.00 | 0.00 | 87 | 1010.1 |
| 20260506211002 | 8 | 248 | 8.0 | 0.0 | 0.00 | 0.00 | 0.00 | 87 | 1010.0 |
| 20260506210501 | 7 | 242 | 9.7 | 0.0 | 0.00 | 0.00 | 0.00 | 88 | 1010.0 |
| 20260506210002 | 7 | 248 | 8.0 | 0.0 | 0.00 | 0.00 | 0.00 | 89 | 1009.9 |
| 20260506205502 | 7 | 248 | 6.4 | 0.0 | 0.00 | 0.00 | 0.00 | 89 | 1009.8 |
| 20260506205002 | 7 | 247 | 9.7 | 0.0 | 0.00 | 0.00 | 0.00 | 89 | 1009.7 |
| 20260506204501 | 7 | 241 | 3.2 | 0.0 | 0.00 | 0.00 | 0.00 | 89 | 1009.8 |
| 20260506204002 | 7 | 250 | 6.4 | 0.0 | 0.00 | 0.00 | 0.00 | 90 | 1009.8 |
| 20260506203501 | 7 | 248 | 4.8 | 0.0 | 0.00 | 0.00 | 0.00 | 89 | 1009.8 |
| 20260506203001 | 7 | 240 | 6.4 | 0.0 | 0.00 | 0.00 | 0.00 | 89 | 1009.8 |
| 20260506202503 | 7 | 246 | 6.4 | 0.0 | 0.00 | 0.00 | 0.00 | 90 | 1009.8 |
| 20260506202002 | 7 | 246 | 4.8 | 0.0 | 0.00 | 0.00 | 0.00 | 90 | 1009.8 |
| 20260506201501 | 7 | 236 | 4.8 | 0.0 | 0.00 | 0.00 | 0.00 | 89 | 1009.8 |
| 20260506201003 | 7 | 224 | 4.8 | 0.0 | 0.00 | 0.00 | 0.00 | 89 | 1009.9 |
| 20260506200501 | 7 | 218 | 6.4 | 0.0 | 0.00 | 0.00 | 0.00 | 89 | 1009.7 |
| 20260506200001 | 7 | 220 | 3.2 | 0.0 | 0.00 | 0.00 | 0.00 | 89 | 1009.6 |
| 20260506195502 | 7 | 239 | 6.4 | 0.0 | 0.00 | 0.00 | 0.00 | 88 | 1009.5 |
| 20260506195001 | 8 | 216 | 6.4 | 0.0 | 0.00 | 0.00 | 0.00 | 87 | 1009.5 |
| 20260506194501 | 8 | 207 | 9.7 | 0.0 | 0.00 | 0.00 | 0.00 | 87 | 1009.4 |
| 20260506194003 | 8 | 214 | 6.4 | 0.0 | 0.00 | 0.00 | 0.00 | 87 | 1009.4 |
| 20260506193502 | 8 | 221 | 4.8 | 0.0 | 0.00 | 0.00 | 0.00 | 87 | 1009.5 |
| 20260506193002 | 8 | 204 | 6.4 | 0.0 | 0.00 | 0.00 | 0.00 | 87 | 1009.5 |
| 20260506192502 | 7 | 208 | 8.0 | 0.0 | 0.00 | 0.00 | 0.00 | 87 | 1009.4 |
| 20260506192005 | 7 | 239 | 6.4 | 0.0 | 0.00 | 0.00 | 0.00 | 87 | 1009.3 |
| 20260506191502 | 7 | 245 | 4.8 | 0.0 | 0.00 | 0.00 | 0.00 | 87 | 1009.2 |
| 20260506191002 | 8 | 238 | 6.4 | 0.0 | 0.00 | 0.00 | 0.00 | 86 | 1009.2 |
| 20260506190502 | 8 | 243 | 3.2 | 0.0 | 0.00 | 0.00 | 0.00 | 86 | 1009.1 |
| 20260506190002 | 8 | 239 | 6.4 | 0.0 | 0.00 | 0.00 | 0.00 | 85 | 1009.0 |
| 20260506185503 | 8 | 241 | 8.0 | 0.0 | 0.00 | 0.00 | 0.00 | 85 | 1009.0 |
| 20260506185001 | 8 | 224 | 6.4 | 0.0 | 0.00 | 0.00 | 0.00 | 86 | 1008.9 |
| 20260506184502 | 8 | 239 | 4.8 | 0.0 | 0.00 | 0.00 | 0.00 | 86 | 1008.8 |
| 20260506184002 | 8 | 238 | 3.2 | 0.0 | 0.00 | 0.00 | 0.00 | 86 | 1008.8 |
| 20260506183501 | 8 | 209 | 4.8 | 0.0 | 0.00 | 0.00 | 0.00 | 85 | 1008.8 |
| 20260506183002 | 8 | 252 | 3.2 | 0.0 | 0.00 | 0.00 | 0.00 | 85 | 1008.7 |
| 20260506182501 | 8 | 224 | 4.8 | 0.0 | 0.00 | 0.00 | 0.00 | 85 | 1008.7 |
| 20260506182002 | 9 | 256 | 4.8 | 0.0 | 0.00 | 0.00 | 0.00 | 85 | 1008.7 |
| 20260506181501 | 9 | 277 | 6.4 | 0.0 | 0.00 | 0.00 | 0.00 | 85 | 1008.7 |
| 20260506181002 | 9 | 228 | 3.2 | 0.0 | 0.00 | 0.00 | 0.00 | 85 | 1008.6 |
| 20260506180501 | 9 | 251 | 6.4 | 0.0 | 0.00 | 0.00 | 0.00 | 84 | 1008.6 |
| 20260506180002 | 9 | 260 | 4.8 | 0.0 | 0.00 | 0.00 | 0.00 | 84 | 1008.6 |
| 20260506175502 | 9 | 272 | 4.8 | 0.0 | 0.00 | 0.00 | 0.00 | 84 | 1008.5 |
| 20260506175002 | 9 | 242 | 6.4 | 0.0 | 0.00 | 0.00 | 0.00 | 84 | 1008.5 |
| 20260506174502 | 9 | 237 | 6.4 | 0.0 | 0.00 | 0.00 | 0.00 | 84 | 1008.4 |
| 20260506174001 | 9 | 241 | 6.4 | 0.0 | 0.00 | 0.00 | 0.00 | 84 | 1008.4 |
| 20260506173502 | 9 | 249 | 14.5 | 0.0 | 0.00 | 0.00 | 0.00 | 85 | 1008.4 |
| 20260506173004 | 9 | 242 | 3.2 | 0.0 | 0.00 | 0.00 | 0.00 | 86 | 1008.4 |
| 20260506172502 | 10 | 239 | 6.4 | 0.0 | 0.00 | 0.00 | 0.00 | 86 | 1008.3 |
| 20260506172002 | 10 | 246 | 8.0 | 0.0 | 0.00 | 0.00 | 0.00 | 86 | 1008.2 |
| 20260506171502 | 10 | 246 | 6.4 | 0.0 | 0.00 | 0.00 | 0.00 | 86 | 1008.1 |
| 20260506171001 | 9 | 245 | 8.0 | 0.0 | 0.00 | 0.00 | 0.00 | 88 | 1008.1 |
| 20260506170502 | 9 | 256 | 8.0 | 0.0 | 0.00 | 0.00 | 0.00 | 88 | 1008.0 |
| 20260506170001 | 9 | 270 | 9.7 | 0.0 | 0.00 | 0.00 | 0.00 | 88 | 1008.0 |
| 20260506165502 | 9 | 248 | 12.9 | 0.0 | 0.00 | 0.00 | 0.00 | 88 | 1008.0 |
| 20260506165002 | 9 | 276 | 8.0 | 0.0 | 0.00 | 0.00 | 0.00 | 88 | 1007.9 |
| 20260506164002 | 8 | 253 | 9.7 | 0.0 | 0.00 | 0.00 | 0.00 | 88 | 1008.0 |
| 20260506163503 | 8 | 245 | 9.7 | 0.0 | 0.00 | 0.00 | 0.00 | 88 | 1007.8 |
| 20260506163002 | 8 | 272 | 6.4 | 0.0 | 0.00 | 0.00 | 0.00 | 89 | 1007.8 |
| 20260506162501 | 8 | 271 | 3.2 | 0.0 | 0.00 | 0.00 | 0.00 | 88 | 1007.9 |
| 20260506162002 | 8 | 249 | 8.0 | 0.0 | 0.00 | 0.00 | 0.00 | 89 | 1007.9 |
| 20260506161501 | 8 | 251 | 12.9 | 0.0 | 0.00 | 0.00 | 0.00 | 89 | 1007.9 |
| 20260506161001 | 8 | 263 | 9.7 | 0.0 | 0.00 | 0.00 | 0.00 | 89 | 1007.9 |
| 20260506160501 | 8 | 251 | 16.1 | 0.0 | 0.00 | 0.00 | 0.00 | 90 | 1007.9 |
| 20260506160002 | 8 | 242 | 8.0 | 0.0 | 0.00 | 0.00 | 0.00 | 90 | 1007.8 |
| 20260506155502 | 8 | 269 | 8.0 | 0.0 | 0.00 | 0.00 | 0.00 | 90 | 1007.8 |
| 20260506155001 | 8 | 244 | 9.7 | 0.0 | 0.00 | 0.00 | 0.00 | 90 | 1007.8 |
| 20260506154502 | 8 | 244 | 6.4 | 0.0 | 0.00 | 0.00 | 0.00 | 91 | 1007.7 |
| 20260506154001 | 8 | 261 | 6.4 | 0.0 | 0.00 | 0.00 | 0.00 | 91 | 1007.7 |
| 20260506153502 | 8 | 251 | 6.4 | 0.0 | 0.00 | 0.00 | 0.00 | 92 | 1007.6 |
| 20260506153001 | 8 | 238 | 6.4 | 0.0 | 0.00 | 0.00 | 0.00 | 92 | 1007.5 |
| 20260506152501 | 8 | 282 | 9.7 | 0.0 | 0.00 | 0.00 | 0.00 | 92 | 1007.5 |
| 20260506152001 | 8 | 267 | 9.7 | 0.0 | 0.00 | 0.00 | 0.00 | 92 | 1007.4 |
| 20260506151501 | 7 | 272 | 9.7 | 0.0 | 0.00 | 0.00 | 0.00 | 92 | 1007.5 |
| 20260506151002 | 7 | 262 | 12.9 | 0.0 | 0.00 | 0.00 | 0.00 | 92 | 1007.3 |
| 20260506150501 | 7 | 268 | 12.9 | 0.0 | 0.00 | 0.00 | 0.00 | 91 | 1007.2 |
| 20260506150003 | 8 | 253 | 11.3 | 0.0 | 0.00 | 0.00 | 0.00 | 91 | 1007.5 |
| 20260506145502 | 8 | 258 | 22.5 | 0.0 | 0.00 | 0.00 | 0.00 | 91 | 1007.6 |
| 20260506145002 | 8 | 282 | 22.5 | 0.0 | 0.00 | 0.00 | 0.00 | 91 | 1007.6 |
| 20260506144501 | 8 | 242 | 22.5 | 0.0 | 0.00 | 0.00 | 0.00 | 91 | 1007.6 |
| 20260506144002 | 8 | 261 | 20.9 | 0.0 | 0.00 | 0.00 | 0.00 | 90 | 1007.4 |
| 20260506143501 | 8 | 269 | 14.5 | 0.0 | 0.00 | 0.00 | 0.00 | 90 | 1007.2 |
| 20260506143001 | 9 | 265 | 17.7 | 0.0 | 0.00 | 0.00 | 0.00 | 89 | 1006.9 |
| 20260506142502 | 9 | 269 | 19.3 | 0.0 | 0.00 | 0.00 | 0.00 | 88 | 1006.5 |
| 20260506142002 | 10 | 278 | 29.0 | 0.0 | 0.00 | 0.00 | 0.00 | 85 | 1006.5 |
| 20260506141502 | 10 | 270 | 14.5 | 0.0 | 0.00 | 0.00 | 0.00 | 81 | 1006.5 |
| 20260506141002 | 11 | 279 | 22.5 | 0.0 | 0.00 | 0.00 | 0.00 | 74 | 1006.2 |
| 20260506140502 | 13 | 240 | 20.9 | 0.0 | 0.00 | 0.00 | 0.00 | 71 | 1005.9 |
| 20260506140001 | 13 | 246 | 4.8 | 0.0 | 0.00 | 0.00 | 0.00 | 71 | 1005.8 |
| 20260506135501 | 14 | 243 | 4.8 | 0.0 | 0.00 | 0.00 | 0.00 | 71 | 1005.6 |
| 20260506135001 | 14 | 243 | 9.7 | 0.0 | 0.00 | 0.00 | 0.00 | 71 | 1005.5 |
| 20260506134502 | 15 | 244 | 8.0 | 0.0 | 0.00 | 0.00 | 0.00 | 70 | 1005.5 |
| 20260506134002 | 15 | 272 | 3.2 | 0.0 | 0.00 | 0.00 | 0.00 | 68 | 1005.5 |
| 20260506133502 | 15 | 282 | 0.0 | 0.0 | 0.00 | 0.00 | 0.00 | 70 | 1005.4 |
| 20260506133002 | 15 | 284 | 12.9 | 0.0 | 0.00 | 0.00 | 0.00 | 69 | 1005.5 |
| 20260506132501 | 14 | 243 | 3.2 | 0.0 | 0.00 | 0.00 | 0.00 | 70 | 1005.5 |
| 20260506132003 | 15 | 274 | 12.9 | 0.0 | 0.00 | 0.00 | 0.00 | 72 | 1005.4 |
| 20260506131502 | 15 | 256 | 8.0 | 0.0 | 0.00 | 0.00 | 0.00 | 70 | 1005.5 |
| 20260506131002 | 15 | 217 | 8.0 | 0.0 | 0.00 | 0.00 | 0.00 | 73 | 1005.4 |
| 20260506130501 | 14 | 218 | 4.8 | 0.0 | 0.00 | 0.00 | 0.00 | 74 | 1005.4 |
| 20260506130002 | 13 | 183 | 4.8 | 0.0 | 0.00 | 0.00 | 0.00 | 73 | 1005.3 |
| 20260506125502 | 13 | 213 | 6.4 | 0.0 | 0.00 | 0.00 | 0.00 | 73 | 1005.6 |
| 20260506125002 | 13 | 209 | 8.0 | 0.0 | 0.00 | 0.00 | 0.00 | 74 | 1005.7 |
| 20260506124502 | 13 | 222 | 8.0 | 0.0 | 0.00 | 0.00 | 0.00 | 73 | 1005.6 |